ICEYE-X25

导读 | 星芒AI

ICEYE-X25 是 ICEYE 公司发射的第5颗合成孔径雷达(SAR)成像卫星,具备高分辨率和全天候、全天时成像能力。该卫星采用小型卫星平台,搭载先进的SAR传感器,能够提供1米分辨率的雷达图像,广泛应用于灾害监测、海洋观测和安全领域。作为 ICEYE 雷达星座的一部分,ICEYE-X25 提升了全球数据获取频率和覆盖能力,支持快速响应和实时监测需求。

基本信息
目录编号:
56963
目录名称:
ICEYE-X25
国际标识:
2023-084AH
轨道中心:
EARTH
卫星名称:
ICEYE-X25
卫星全名:
--
卫星状态:
在轨 (已飞行870 天)
发射日期:
2023-06-12 UTC
国别 :
(FI)
星等 :
--
轨道信息
数据来源 国际轨道数据
星历时间: 2025-10-28T22:24:49+0800
16小时前
查看轨道信息
半长轴: 6826.386km
偏心率: 0.0006233
轨道倾角: 97.576°
近地点辐角 58.278°
升交点赤经 70.983°
平近点角 301.908°
近地点: 443.996km
远地点: 452.506km
周期: 93.550分钟
每日圈数: 15.392763
详细信息
使用方式:
暂无
2D轨道图
3D轨道图
轨道高度分析图
轨道倾角分析图
轨道综合分析图
查看轨道综合分析图